CADRE

Last updated on Wed Jan 04 2017 00:15:05 GMT+0000 (Coordinated Universal Time)

1 41475U 98067HV 17003.74787607 .12518598 12537-4 55989-3 0 9998 2 41475 51.6110 110.0165 0004040 312.3134 47.7551 16.43344525 36494

Satellite not in orbit